Theta_e
310 309 310 310 308 309 308 310 311 309 309 311 310 309 310 312 311 311 314 315 316 317 318 317 314 314 314 313 313 313 312 312 312 312 312 312 312 320 320 320 326 324 326 324
308 309 309 308 307 310 310 311 311 309 308 310 310 310 310 309 312 314 314 315 316 316 318 318 317 315 314 314 313 313 312 311 311 311 312 312 315 317 319 324 325 327 323 325
309 310 308 309 308 309 309 310 310 311 310 308 308 309 308 308 309 311 314 315 315 316 317 317 318 317 315 314 314 313 313 312 311 311 311 312 318 319 324 322 323 322 324 322
309 309 309 309 310 309 311 307 309 311 312 311 309 311 310 308 309 307 312 314 315 316 316 317 317 316 316 316 315 313 312 312 311 310 310 311 313 316 317 321 322 322 323 322
310 309 310 311 310 308 310 307 308 310 310 310 310 312 311 309 310 310 311 314 315 316 316 316 316 316 315 314 314 314 312 311 310 310 310 311 313 316 318 320 321 322 321 320
309 309 309 310 309 309 307 309 308 306 308 312 310 311 312 309 311 310 310 314 315 315 315 315 315 316 315 314 313 312 312 311 310 309 310 311 312 318 318 320 321 320 320 319
310 310 309 310 310 309 310 311 311 310 311 315 307 310 313 309 308 309 310 315 315 315 314 315 317 317 317 315 314 313 311 310 310 309 310 311 312 317 317 319 320 320 318 318
310 310 310 308 310 311 309 311 311 309 308 308 308 312 311 308 310 311 312 313 313 312 313 314 316 316 316 315 314 312 311 309 309 309 309 311 311 314 317 319 319 319 318 318
308 309 308 308 309 310 310 312 310 310 295 307 308 307 307 306 307 308 312 312 312 314 315 316 317 317 317 316 315 314 312 309 308 308 310 311 312 317 317 318 319 318 317 317
308 310 308 308 310 309 309 308 312 308 309 308 309 309 311 312 311 309 307 311 314 314 315 317 317 317 316 315 314 312 310 309 308 308 310 310 311 314 315 317 318 317 316 316
308 309 309 308 309 309 310 310 309 309 308 309 308 312 306 309 309 308 308 312 314 314 317 317 317 317 317 315 313 312 311 309 308 307 309 310 310 314 315 316 316 316 316 315
308 310 309 309 307 305 307 309 309 310 308 306 307 314 307 308 309 309 309 312 314 315 316 316 316 316 315 315 314 313 311 310 308 307 309 310 310 313 315 315 315 315 314 314
309 311 306 311 310 307 307 307 309 307 307 309 312 315 305 306 308 310 310 312 313 314 315 315 315 315 315 317 314 313 312 310 308 307 309 310 309 313 315 314 314 314 313 311
311 312 312 317 312 309 309 307 308 311 310 313 311 314 312 311 311 309 312 313 314 315 314 313 314 315 316 317 315 314 313 311 308 307 309 309 309 313 313 312 313 314 313 310
314 316 313 313 312 310 310 309 310 311 312 313 314 312 313 311 309 312 314 314 313 314 313 315 316 316 316 316 315 314 313 311 310 308 308 309 309 313 311 310 311 312 311 309
312 316 314 315 313 314 314 310 308 310 312 312 312 313 313 313 312 311 313 314 314 314 315 316 316 316 316 315 316 314 313 312 309 308 308 309 310 312 311 309 309 310 310 308
310 314 314 317 314 314 315 314 314 313 310 312 312 312 312 311 309 311 312 313 314 315 315 315 315 315 315 315 315 315 314 311 309 307 307 308 309 311 310 309 308 309 309 307
308 308 310 317 314 317 315 313 313 314 313 312 312 313 313 312 312 312 313 312 313 313 313 314 314 314 313 314 313 313 312 310 309 306 306 306 307 309 309 308 307 308 307 305
308 308 311 315 317 316 313 309 310 312 314 312 312 312 312 312 311 311 312 312 313 313 312 312 312 312 313 313 312 311 309 308 307 307 305 304 304 305 306 307 307 307 304 300
308 309 311 313 314 315 312 309 309 309 316 311 311 311 311 310 310 312 312 312 312 313 313 313 313 313 312 312 312 310 309 306 305 305 304 302 302 302 303 305 306 304 300 295
306 309 311 314 315 314 309 303 307 315 312 304 308 310 310 307 311 312 311 311 312 312 312 312 312 312 310 310 309 308 307 306 304 302 300 299 298 299 300 301 301 300 296 293
309 310 311 312 313 313 308 305 313 311 307 308 309 310 309 310 310 310 310 309 310 310 310 309 309 308 308 307 305 304 303 301 299 298 297 296 295 296 296 296 296 296 294 293
304 305 306 311 311 308 308 310 310 310 302 304 306 307 306 304 304 305 306 305 305 306 306 305 304 304 304 303 301 300 299 298 297 296 295 295 294 294 294 294 293 292 292 291
301 301 302 303 301 302 305 307 306 307 309 307 304 304 304 303 302 302 303 304 304 303 302 301 301 301 300 299 298 297 298 297 296 295 294 293 293 292 292 292 292 293 294 293
297 300 299 301 303 303 304 304 303 306 305 305 302 300 302 302 301 301 303 302 302 302 301 300 299 299 298 297 297 296 297 300 300 299 299 298 297 296 295 294 294 293 293 293
297 300 303 304 301 302 303 301 301 303 304 303 300 298 299 299 298 299 300 301 300 299 298 297 297 297 297 296 297 298 299 298 299 298 298 297 297 297 296 296 295 294 292 292
Wind_Speed
3 5 6 12 5 3 5 2 3 4 3 3 7 11 12 25 22 27 30 31 33 35 32 30 33 34 34 35 36 35 34 34 33 31 30 30 30 30 29 30 30 30 29 27
5 5 10 6 6 4 4 3 5 6 3 4 8 14 16 12 22 33 36 42 44 41 38 35 33 36 39 39 38 37 37 36 35 32 31 30 28 29 28 29 34 29 30 28
8 5 6 7 5 6 4 6 5 7 3 3 6 7 8 8 23 34 42 48 44 43 42 41 39 37 38 41 40 39 38 37 36 35 33 32 30 30 32 34 33 29 30 28
6 5 6 5 5 8 5 8 5 4 3 4 1 6 8 7 13 7 29 34 39 42 43 44 42 39 41 40 40 41 40 38 37 37 35 34 35 38 37 37 34 33 32 31
8 10 7 5 8 8 7 5 6 3 3 4 2 4 7 0 8 11 23 37 36 35 35 35 32 31 34 38 41 42 42 41 40 38 36 34 35 36 33 35 34 35 33 29
3 1 6 8 3 4 9 6 6 4 2 4 9 7 9 6 7 6 11 27 28 23 17 18 19 19 25 29 33 38 43 43 42 39 38 36 36 38 35 36 37 35 34 32
2 4 3 4 6 4 2 6 1 3 0 9 2 5 18 6 9 8 13 30 24 17 11 10 11 12 14 20 27 33 40 45 45 42 40 37 36 37 35 36 37 37 35 35
8 8 11 7 9 9 9 8 6 8 4 4 3 8 7 9 17 25 31 34 33 27 19 16 14 13 14 17 20 26 34 42 45 43 41 38 35 36 39 39 37 37 35 34
6 6 2 2 2 9 6 8 3 1 3 2 6 9 9 9 13 16 27 25 22 19 14 11 9 9 11 14 18 22 28 36 43 42 40 38 35 38 39 39 39 37 36 33
5 4 0 1 2 2 6 6 3 1 4 4 6 6 9 5 9 10 8 22 26 20 14 10 9 7 8 12 16 20 25 30 37 40 40 37 35 37 37 38 38 38 37 36
5 4 1 3 6 10 4 5 2 4 5 5 2 8 8 10 9 9 8 8 8 9 14 11 8 6 8 13 15 17 22 28 33 36 38 37 35 37 38 39 39 38 38 39
8 4 7 11 3 3 3 6 8 5 5 3 2 16 4 6 6 5 10 3 2 4 7 11 10 8 12 6 12 16 20 25 29 33 36 36 33 38 39 39 39 38 39 41
8 4 1 7 2 2 5 5 7 3 3 10 7 16 2 4 5 5 7 5 4 7 11 12 9 8 6 9 14 15 18 23 28 33 36 37 35 38 39 38 38 38 40 41
15 5 9 13 5 5 6 7 9 13 4 18 11 32 17 3 5 9 12 11 11 11 14 15 14 13 16 17 17 18 19 23 28 33 37 38 36 38 36 36 37 37 39 41
10 12 8 20 10 3 4 6 14 17 25 12 31 18 31 12 10 21 33 35 38 37 29 28 29 33 30 24 20 22 23 25 29 35 39 39 35 37 37 37 37 37 38 40
5 9 12 21 21 20 19 9 10 21 21 20 29 26 29 26 24 17 28 37 40 40 41 36 34 36 34 27 27 25 28 29 32 35 39 39 37 40 41 39 39 39 39 42
6 7 8 21 21 13 11 25 27 21 18 21 19 32 19 18 14 20 32 38 39 39 42 44 39 39 36 35 32 32 33 33 34 35 37 40 40 42 43 41 40 42 43 43
9 10 4 11 9 15 15 18 22 25 27 25 24 29 27 25 22 25 42 37 42 43 43 45 42 43 40 34 34 35 36 34 34 36 38 40 42 42 43 41 41 42 42 43
19 10 7 4 6 9 10 8 8 11 24 21 24 29 35 37 19 38 44 40 45 42 39 36 32 29 28 30 30 31 33 32 33 34 36 38 40 42 42 42 41 42 41 43
17 18 12 9 11 12 9 8 9 7 14 11 22 25 27 10 6 18 21 18 17 16 18 19 16 19 21 23 24 25 26 27 29 30 30 33 35 38 40 39 40 41 39 42
5 5 15 15 13 6 6 1 1 7 6 4 11 22 11 7 15 20 16 20 23 23 24 25 25 22 19 17 18 19 19 20 20 21 21 23 26 29 33 35 35 36 36 34
4 4 7 6 6 9 12 4 8 6 3 5 5 8 12 14 14 18 20 18 16 19 20 17 14 13 12 10 10 11 12 12 14 14 14 16 18 22 26 27 28 28 26 28
8 8 5 6 3 3 11 11 18 8 8 5 9 13 15 13 12 12 13 11 9 10 12 10 8 8 7 8 8 6 8 9 10 12 12 12 13 15 18 21 22 21 23 24
4 3 3 3 4 5 20 21 19 11 12 21 16 16 17 16 12 10 10 9 6 5 5 3 4 7 11 13 14 13 14 14 12 12 12 11 12 14 15 16 18 20 23 26
5 1 3 4 7 16 22 16 17 15 15 18 17 14 13 12 11 9 8 7 4 5 7 8 8 12 15 17 18 18 16 14 14 13 13 12 12 13 16 18 19 21 21 23
6 5 3 5 9 9 15 8 14 20 20 17 15 11 10 9 8 6 5 6 5 8 9 9 11 13 16 15 16 17 17 14 11 13 14 13 13 13 12 12 14 15 16 17
Wind_Direction
79 101 196 214 183 139 134 161 218 246 241 198 234 258 262 266 271 266 262 260 259 257 259 252 243 240 238 237 237 238 238 235 236 236 235 232 230 219 219 220 220 224 222 226
50 209 224 120 161 149 157 157 254 285 225 188 274 266 269 246 254 254 257 262 261 258 257 254 248 239 238 239 239 238 239 238 239 240 239 235 225 221 220 218 224 211 227 221
172 201 132 145 158 164 197 179 217 227 339 249 331 279 260 276 247 253 256 259 261 258 256 253 249 246 240 240 240 239 239 240 240 240 237 232 219 217 211 213 219 221 222 232
220 195 147 171 190 155 228 207 166 164 66 257 91 287 282 251 252 237 254 254 255 255 256 256 254 250 248 247 243 241 240 240 240 239 236 232 226 221 221 216 216 220 219 221
228 172 172 177 196 159 224 125 158 129 161 351 195 276 246 165 269 254 252 256 257 260 262 265 266 265 259 251 247 243 239 238 237 236 235 234 225 224 227 218 217 218 220 222
237 172 165 193 116 151 149 79 55 58 91 281 180 175 253 193 221 254 259 269 268 275 277 272 266 259 255 247 243 242 239 238 238 235 233 232 225 220 221 217 215 221 218 217
136 215 193 152 92 51 148 114 290 321 48 237 9 193 258 277 230 228 253 272 279 276 271 269 273 266 258 246 240 237 234 233 235 232 230 229 224 218 221 223 222 219 221 217
189 259 167 189 191 167 201 166 172 205 197 255 11 236 251 240 268 256 258 261 267 270 274 272 271 258 252 249 245 241 237 232 232 231 229 227 225 217 221 220 226 225 226 227
167 265 256 143 140 152 194 213 205 93 96 26 224 277 286 259 275 265 257 260 264 267 267 260 249 256 258 260 257 251 244 235 232 230 229 227 222 215 217 221 225 224 222 221
216 276 159 305 116 21 168 167 83 357 192 246 265 265 234 276 252 260 257 259 261 260 239 239 230 237 255 259 254 248 245 242 237 230 229 230 222 219 220 223 224 226 222 218
165 169 229 131 212 173 144 204 152 145 161 190 272 261 213 221 238 263 273 286 283 222 198 205 199 232 255 262 257 253 246 241 235 230 229 230 225 221 222 224 226 227 225 220
205 181 239 216 227 222 297 230 167 152 216 237 186 266 171 219 257 239 270 262 226 174 191 199 205 227 248 286 272 264 253 244 233 228 227 231 228 222 224 226 229 228 225 222
182 197 332 321 351 350 233 204 198 106 70 214 191 259 352 336 299 354 284 252 275 257 218 215 221 257 285 302 267 258 254 246 233 227 226 230 226 221 223 229 231 230 228 224
173 165 193 232 204 136 194 200 195 198 187 243 222 253 249 36 346 322 292 279 285 270 249 247 256 303 308 278 266 259 256 247 235 228 227 231 228 221 225 231 232 231 228 223
181 217 226 245 244 180 233 210 198 210 232 226 250 242 258 247 241 263 274 286 290 285 273 273 287 292 292 268 261 255 254 250 242 230 229 232 229 221 225 229 232 232 230 225
211 235 206 245 238 235 238 224 229 225 229 238 251 258 259 258 260 243 254 256 263 270 274 279 279 284 279 272 269 263 256 250 243 234 232 234 230 222 226 227 229 234 231 224
316 228 191 239 235 230 237 229 230 233 228 220 235 243 255 263 239 245 257 257 259 264 271 277 280 283 282 283 266 272 261 253 246 238 235 234 232 227 228 229 230 233 232 226
238 257 276 251 239 228 234 243 224 225 234 227 241 255 252 252 268 263 260 262 269 273 278 280 280 281 278 271 265 264 259 254 248 241 236 234 233 232 230 231 232 235 232 227
212 218 243 256 267 273 303 245 177 188 245 236 234 250 259 261 273 272 269 271 274 279 282 280 279 276 271 265 261 258 254 250 243 240 237 234 233 232 231 230 231 234 232 225
214 207 215 226 239 255 272 275 209 132 248 216 215 238 248 234 234 262 272 271 272 271 278 279 278 282 276 265 257 255 251 247 243 241 239 236 234 233 233 231 232 232 230 225
176 219 228 231 238 228 226 190 269 171 244 203 216 237 236 192 229 256 265 272 275 276 273 277 280 277 272 259 249 245 240 238 241 240 239 237 234 233 231 230 229 230 226 220
214 242 215 203 242 268 189 125 168 218 235 266 268 258 242 248 253 258 268 275 273 275 282 281 270 263 254 242 238 233 228 222 221 221 219 220 223 223 226 226 226 226 222 220
251 201 232 207 230 251 206 247 212 199 302 276 251 279 285 282 275 277 283 290 285 276 273 268 251 236 209 189 175 184 176 177 179 179 182 186 194 204 213 216 215 208 212 216
236 208 211 20 332 344 324 295 279 284 268 281 290 289 284 286 291 288 283 280 274 255 236 219 204 175 161 145 137 133 135 134 141 147 150 157 170 177 188 194 202 212 216 214
201 7 252 267 275 311 307 328 293 305 284 286 286 282 280 281 282 281 278 268 238 184 172 159 161 154 142 134 133 130 128 129 136 140 141 148 160 177 189 200 210 216 224 232
194 184 190 256 278 264 272 255 305 311 328 299 278 273 268 261 262 256 238 234 212 173 161 156 157 151 136 134 132 131 129 130 138 139 138 142 151 158 171 186 194 203 214 226